This is the latest recevied weather packets stored in our database for station/object K8RRT. If no packets are shown the sender has not sent any weather packets the latest 10 day(s).
| Time | Temp. | Humidity | Pressure | Rain* | Wind** | Luminosity | Snow |
|---|---|---|---|---|---|---|---|
| 1777680838 | 11.67° C | 69% | 1010.5 hPa | 0 mm | - | 2 W/m² | - |
| 1777680536 | 11.67° C | 70% | 1010.5 hPa | 0 mm | - | 6 W/m² | - |
| 1777680234 | 12.22° C | 69% | 1010.4 hPa | 0 mm | - | 7 W/m² | - |
| 1777679930 | 12.22° C | 68% | 1010.3 hPa | 0 mm | - | 11 W/m² | - |
| 1777679625 | 12.22° C | 67% | 1010.4 hPa | 0 mm | - | 29 W/m² | - |
| 1777679321 | 12.78° C | 67% | 1010.2 hPa | 0 mm | - | 19 W/m² | - |
| 1777679018 | 12.78° C | 65% | 1009.8 hPa | 0 mm | - | 19 W/m² | - |
| 1777678717 | 12.78° C | 64% | 1009.4 hPa | 0 mm | - | 47 W/m² | - |
| 1777678414 | 12.78° C | 63% | 1009.6 hPa | 0 mm | - | 35 W/m² | - |
| 1777678109 | 12.78° C | 63% | 1009.3 hPa | 0 mm | - | 29 W/m² | - |
| 1777677807 | 12.78° C | 64% | 1009.3 hPa | 0 mm | - | 44 W/m² | - |
| 1777677504 | 12.78° C | 63% | 1009.3 hPa | 0 mm | - | 48 W/m² | - |
| 1777677202 | 12.78° C | 63% | 1009.2 hPa | 0 mm | - | 49 W/m² | - |
| 1777676900 | 12.78° C | 63% | 1009.3 hPa | 0 mm | - | 52 W/m² | - |
| 1777676599 | 12.78° C | 64% | 1009.3 hPa | 0 mm | - | 82 W/m² | - |
| 1777676296 | 12.78° C | 65% | 1009.5 hPa | 0 mm | - | 65 W/m² | - |
| 1777675994 | 12.78° C | 66% | 1009.4 hPa | 0 mm | - | 60 W/m² | - |
| 1777675690 | 12.78° C | 69% | 1009.3 hPa | 0 mm | - | 44 W/m² | - |
| 1777675387 | 12.78° C | 68% | 1009.3 hPa | 0 mm | - | 57 W/m² | - |
| 1777675083 | 12.78° C | 68% | 1009.4 hPa | 0 mm | - | 88 W/m² | - |
| 1777674779 | 12.78° C | 67% | 1009.3 hPa | 0 mm | - | 66 W/m² | - |
| 1777674476 | 12.78° C | 67% | 1009.1 hPa | 0 mm | - | 77 W/m² | - |
| 1777674174 | 12.78° C | 69% | 1009.1 hPa | 0 mm | - | 68 W/m² | - |
| 1777673870 | 12.78° C | 69% | 1009.2 hPa | 0 mm | - | 75 W/m² | - |
| 1777673567 | 12.78° C | 69% | 1009.2 hPa | 0 mm | - | 55 W/m² | - |
* Rain latest hour (hover to see other rain measurements)
** Current wind speed in m/s (hover to see current wind gust speed)